Regional Weather Roundup
Issued by NWS Albany, NY

Home | Current Version | Previous Version | Text Only | Print | Product List | Glossary On
Versions: 1 2 3 4 5 6 7 8 9 10 11 12 13 14 15 16 17 18 19 20 21 22 23 24 25 26 27 28 29 30 31 32 33 34 35 36 37 38 39 40 41 42 43 44 45 46 47 48
000
ASUS41 KALY 271010
RWRALY

NEW YORK STATE HOURLY WEATHER ROUNDUP
NATIONAL WEATHER SERVICE ALBANY NY
500 AM EST TUE JAN 27 2015

NOTE: "FAIR" INDICATES FEW OR NO CLOUDS BELOW 12,000 FEET WITH NO
SIGNIFICANT WEATHER AND/OR NO OBSTRUCTIONS TO VISIBILITY.

NYZ032-033-038>043-046>054-057>066-NYZ062>081-271100-
EAST


CITY           SKY/WX    TMP DP  RH WIND       PRES   REMARKS
ALBANY         CLOUDY    15   2  56 N12       29.85F WCI   2
GLENS FALLS    CLOUDY    13   1  59 NE8       29.87F WCI   2
POUGHKEEPSIE   LGT SNOW  17  11  77 N15G23    29.74F WCI   2
NEWBURGH       LGT SNOW  16  12  86 NE23G35   29.73F WCI  -2
MONTGOMERY     LGT SNOW  18  14  84 N12       29.72F FOG     WCI   5
WHITE PLAINS   LGT SNOW  18  13  80 N23G35    29.61F VSB 1   WCI   0
ISLIP          HVY SNOW  20  16  84 N31       29.54S VSB 1/4 WCI   1
NEW YORK CITY  LGT SNOW  21  17  84 N21G29    29.65F VSB 1   WCI   5
CENTRAL PARK   LGT SNOW  21  15  78 VRB7G22   29.68S VSB 1   WCI  12
$$

NYZ005>009-017-018-044>046-055-056-271100-
CENTRAL


CITY           SKY/WX    TMP DP  RH WIND       PRES   REMARKS
FULTON         CLOUDY    10   3  73 N8        29.92R WCI  -2
SYRACUSE       CLOUDY    12   7  80 W6        29.90R WCI   3
ROME           CLOUDY    11   1  64 NW5       29.89F WCI   3
ELMIRA         CLOUDY    18  13  80 CALM      29.84R
BINGHAMTON     CLOUDY    14   9  80 N12       29.75R WCI   0
MONTICELLO     CLOUDY    18  12  79 NW7       29.68S WCI   8
$$

NYZ026>034-041>043-271100-
NORTH


CITY           SKY/WX    TMP DP  RH WIND       PRES   REMARKS
WATERTOWN      CLEAR      4  -6  63 NE12      29.99S WCI -12
FORT DRUM      NOT AVBL
MASSENA        MOCLDY     6  -4  63 NE15      30.07S WCI -12
SARANAC LAKE   CLOUDY     4  -5  66 E9        29.82R WCI -10
PLATTSBURGH    CLOUDY     6  -5  60 N17       30.00S WCI -13
$$

NYZ001>004-010>016-019>021-271100-
WEST


CITY           SKY/WX    TMP DP  RH WIND       PRES   REMARKS
NIAGARA FALLS  LGT SNOW  17  12  80 NE13      29.96R WCI   4
BUFFALO        LGT SNOW  16  12  84 NE16      29.93R FOG     WCI   1
DUNKIRK        FLURRIES  17  12  80 NE10      29.93S WCI   5
JAMESTOWN      CLOUDY    12   9  85 N8        29.81R WCI   1
WELLSVILLE     FLURRIES  11   8  88 N3        29.77S
ROCHESTER      LGT SNOW  16  13  88 NE14      29.95R FOG     WCI   2
PENN YAN       CLOUDY    16  11  80 N5        29.87S WCI   9
$$

             KEY
       WCI = WIND CHILL INDEX
       VSB = VISIBILITY
       HX  = HEAT INDEX
$$



USA.gov is the U.S. government's official web portal to all federal, state and local government web resources and services.